Location: Ward Pound Ridge Reservation
(41.2500°N, 73.6000°W)
Time: 10:56:59
(UTC-04:00)

Vanguard 1 Rocket - Visible Passes

Search period start: 23 October 2017 00:00
Search period end: 02 November 2017 00:00
Orbit: 655 x 4222 km, 34.3° (Epoch: 22 October)

Date Brightness Start Highest point End Pass type
(mag) Time Alt. Az. Time Alt. Az. Time Alt. Az.
23 Oct 11.1 03:27:59 10° SSE 03:28:20 10° SSE 03:28:43 10° SSE visible
23 Oct 9.8 05:46:06 10° SSW 05:55:21 27° SSE 06:01:08 10° ESE visible
24 Oct 10.3 04:34:06 10° SSW 04:43:42 22° SSE 04:50:03 10° ESE visible
25 Oct 10.8 03:25:55 13° S 03:31:37 16° SSE 03:37:49 10° ESE visible
25 Oct 9.6 05:47:48 10° SW 05:58:37 34° SSE 06:04:55 10° ESE visible
26 Oct 11.2 02:19:37 10° SE 02:19:37 10° SE 02:21:34 10° SE visible
26 Oct 10.1 04:36:59 13° SSW 04:46:57 29° SSE 04:54:12 10° ESE visible
27 Oct 10.6 03:30:33 20° S 03:34:50 23° SSE 03:42:47 10° ESE visible
27 Oct 9.3 05:49:49 10° SW 06:01:52 41° SSE 06:08:31 10° E visible
28 Oct 11.0 02:24:01 16° SE 02:24:01 16° SE 02:29:55 10° ESE visible
28 Oct 9.8 04:41:21 20° SSW 04:50:10 36° SSE 04:58:00 10° E visible
29 Oct 10.3 03:34:43 28° S 03:38:00 30° SSE 03:46:59 10° E visible
29 Oct 9.2 05:52:03 10° WSW 06:05:05 48° S 06:12:00 10° E visible
30 Oct 10.8 02:28:00 22° SE 02:28:00 22° SE 02:35:02 10° ESE visible
30 Oct 9.6 04:45:19 25° SW 04:53:20 44° SSE 05:01:37 10° E visible
31 Oct 10.1 03:38:31 35° S 03:41:06 37° SSE 03:50:48 10° E visible
31 Oct 9.1 05:55:51 13° WSW 06:08:16 54° S 06:15:26 10° E visible
01 Nov 10.6 02:31:39 28° SE 02:31:39 28° SE 02:39:19 10° E visible
01 Nov 9.5 04:48:57 30° SW 04:56:28 51° SSE 05:05:06 10° E visible
